Location: Musselshell
(46.5176°N, 108.0911°W)
Time: 01:56:59
(UTC+00:00)

SEEDS - Pass Details

Date: 09 July 2022
Orbit: 580 x 597 km, 97.6° (Epoch: 17 August)

Event Time Altitude Azimuth Distance (km) Brightness Sun altitude
Rises 10:49:21 0° 22° (NNE) 2,811 ? -6.2°
Reaches altitude 10° 10:51:43 10° 33° (NNE) 1,906 ? -5.9°
Maximum altitude 10:55:22 30° 96° (E) 1,055 ? -5.4°
Drops below altitude 10° 10:59:00 10° 158° (SSE) 1,893 ? -5.0°
Sets 11:01:21 0° 169° (S) 2,789 ? -4.6°
